Torna al catalogo

STARLINK-3999

AttivoComunicazioniVLEO
NORAD 52704·PAYLOAD·🇺🇸 United States

Lanciato May 18, 2022 da Cape Canaveral Space Force Station

Loading…

Prossimi Passaggi (prossime 24 ore)

TLE

AggiornatoSource: CelesTrak SupGP

Epoca: Sep 14, 2026, 22:13 UTC

1 52704C 22053BA  26257.92618056 -.00053222  00000+0 -15227-2 0  2570
2 52704  53.1584 352.9864 0001136  85.8057  97.3850 15.35426352    16

Traccia STARLINK-3999 in tempo reale con AllMySat

Download on the App Store